"Sample Date","Sample Time","Sample Value","Units","Flow Rate","Sample Interval","Number Channels","Micron Size 0","Counts/Channel 0","Micron Size 1","Counts/Channel 1","Micron Size 2","Counts/Channel 2","Micron Size 3","Counts/Channel 3","Micron Size 4","Counts/Channel 4","Micron Size 5","Counts/Channel 5","Micron Size 6","Counts/Channel 6","Micron Size 7","Counts/Channel 7","Micron Size 8","Counts/Channel 8","Micron Size 9","Counts/Channel 9","Micron Size 10","Counts/Channel 10","Micron Size 11","Counts/Channel 11","Micron Size 12","Counts/Channel 12","Micron Size 13","Counts/Channel 13","Micron Size 14","Counts/Channel 14","Micron Size 15","Counts/Channel 15","Micron Size 16","Counts/Channel 16","Micron Size 17","Counts/Channel 17","Micron Size 18","Counts/Channel 18","Micron Size 19","Counts/Channel 19","Micron Size 20","Counts/Channel 20","Micron Size 21","Counts/Channel 21","Micron Size 22","Counts/Channel 22","Micron Size 23","Counts/Channel 23","Micron Size 24","Counts/Channel 24","Micron Size 25","Counts/Channel 25","Micron Size 26","Counts/Channel 26","Micron Size 27","Counts/Channel 27","Micron Size 28","Counts/Channel 28","Micron Size 29","Counts/Channel 29","Micron Size 30","Counts/Channel 30","Micron Size 31","Counts/Channel 31"
"03/08/08","05:00:02",732.000,"cc",28328.434,6.00,6,0.100,657.000,0.200,65.000,0.300,6.000,0.500,4.000,1.000,0,5.000,0
"03/08/08","05:00:08",747.000,"cc",28377.465,6.00,6,0.100,671.000,0.200,68.000,0.300,6.000,0.500,2.000,1.000,0,5.000,0
"03/08/08","05:00:14",659.000,"cc",28304.197,6.00,6,0.100,586.000,0.200,64.000,0.300,9.000,0.500,0,1.000,0,5.000,0
"03/08/08","05:00:20",776.000,"cc",28299.637,6.00,6,0.100,688.000,0.200,78.000,0.300,9.000,0.500,1.000,1.000,0,5.000,0
"03/08/08","05:00:26",820.000,"cc",28335.961,6.00,6,0.100,741.000,0.200,68.000,0.300,11.000,0.500,0,1.000,0,5.000,0
"03/08/08","05:00:32",879.000,"cc",28341.481,6.00,6,0.100,779.000,0.200,89.000,0.300,8.000,0.500,3.000,1.000,0,5.000,0
"03/08/08","05:00:38",938.000,"cc",28307.154,6.00,6,0.100,863.000,0.200,65.000,0.300,8.000,0.500,1.000,1.000,1.000,5.000,0
"03/08/08","05:00:44",884.000,"cc",28327.988,6.00,6,0.100,793.000,0.200,83.000,0.300,7.000,0.500,1.000,1.000,0,5.000,0
"03/08/08","05:00:50",746.000,"cc",28254.225,6.00,6,0.100,661.000,0.200,75.000,0.300,7.000,0.500,3.000,1.000,0,5.000,0
"03/08/08","05:00:56",939.000,"cc",28321.387,6.00,6,0.100,829.000,0.200,91.000,0.300,16.000,0.500,3.000,1.000,0,5.000,0
"03/08/08","05:01:02",935.000,"cc",28325.740,6.00,6,0.100,818.000,0.200,100.000,0.300,14.000,0.500,3.000,1.000,0,5.000,0
"03/08/08","05:01:08",762.000,"cc",28324.508,6.00,6,0.100,665.000,0.200,79.000,0.300,15.000,0.500,3.000,1.000,0,5.000,0
"03/08/08","05:01:14",845.000,"cc",28412.889,6.00,6,0.100,747.000,0.200,80.000,0.300,15.000,0.500,3.000,1.000,0,5.000,0
"03/08/08","05:01:20",897.000,"cc",28296.811,6.00,6,0.100,766.000,0.200,105.000,0.300,21.000,0.500,5.000,1.000,0,5.000,0
"03/08/08","05:01:26",940.000,"cc",28297.445,6.00,6,0.100,823.000,0.200,90.000,0.300,24.000,0.500,3.000,1.000,0,5.000,0
"03/08/08","05:01:32",792.000,"cc",28232.377,6.00,6,0.100,692.000,0.200,77.000,0.300,21.000,0.500,2.000,1.000,0,5.000,0
"03/08/08","05:01:38",837.000,"cc",28390.215,6.00,6,0.100,726.000,0.200,91.000,0.300,17.000,0.500,3.000,1.000,0,5.000,0
"03/08/08","05:01:44",845.000,"cc",28279.412,6.00,6,0.100,750.000,0.200,80.000,0.300,14.000,0.500,1.000,1.000,0,5.000,0
"03/08/08","05:01:50",811.000,"cc",28268.287,6.00,6,0.100,704.000,0.200,93.000,0.300,12.000,0.500,2.000,1.000,0,5.000,0
"03/08/08","05:01:56",553.000,"cc",28375.066,6.00,6,0.100,479.000,0.200,61.000,0.300,10.000,0.500,3.000,1.000,0,5.000,0
"03/08/08","05:02:02",629.000,"cc",28364.457,6.00,6,0.100,563.000,0.200,58.000,0.300,7.000,0.500,1.000,1.000,0,5.000,0
"03/08/08","05:02:08",527.000,"cc",28294.916,6.00,6,0.100,466.000,0.200,56.000,0.300,5.000,0.500,0,1.000,0,5.000,0
"03/08/08","05:02:14",514.000,"cc",28291.871,6.00,6,0.100,440.000,0.200,63.000,0.300,8.000,0.500,3.000,1.000,0,5.000,0
"03/08/08","05:02:20",571.000,"cc",28288.568,6.00,6,0.100,480.000,0.200,78.000,0.300,10.000,0.500,3.000,1.000,0,5.000,0
"03/08/08","05:02:26",551.000,"cc",28266.592,6.00,6,0.100,494.000,0.200,49.000,0.300,7.000,0.500,0,1.000,1.000,5.000,0
"03/08/08","05:02:32",668.000,"cc",28332.231,6.00,6,0.100,584.000,0.200,70.000,0.300,10.000,0.500,3.000,1.000,1.000,5.000,0
"03/08/08","05:02:38",781.000,"cc",28379.586,6.00,6,0.100,682.000,0.200,66.000,0.300,26.000,0.500,6.000,1.000,1.000,5.000,0
"03/08/08","05:02:44",829.000,"cc",28330.545,6.00,6,0.100,717.000,0.200,87.000,0.300,21.000,0.500,4.000,1.000,0,5.000,0
"03/08/08","05:02:50",966.000,"cc",28294.785,6.00,6,0.100,822.000,0.200,117.000,0.300,22.000,0.500,5.000,1.000,0,5.000,0
"03/08/08","05:02:56",979.000,"cc",28309.068,6.00,6,0.100,857.000,0.200,97.000,0.300,15.000,0.500,10.000,1.000,0,5.000,0
"03/08/08","05:03:02",914.000,"cc",28329.100,6.00,6,0.100,804.000,0.200,90.000,0.300,16.000,0.500,4.000,1.000,0,5.000,0
"03/08/08","05:03:08",1034.000,"cc",28221.166,6.00,6,0.100,882.000,0.200,119.000,0.300,25.000,0.500,8.000,1.000,0,5.000,0
"03/08/08","05:03:14",1036.000,"cc",28352.664,6.00,6,0.100,898.000,0.200,116.000,0.300,15.000,0.500,7.000,1.000,0,5.000,0
"03/08/08","05:03:20",1182.000,"cc",28368.482,6.00,6,0.100,1024.000,0.200,121.000,0.300,29.000,0.500,8.000,1.000,0,5.000,0
"03/08/08","05:03:26",1180.000,"cc",28325.190,6.00,6,0.100,991.000,0.200,140.000,0.300,39.000,0.500,9.000,1.000,1.000,5.000,0
"03/08/08","05:03:32",1053.000,"cc",28328.943,6.00,6,0.100,913.000,0.200,105.000,0.300,26.000,0.500,9.000,1.000,0,5.000,0
"03/08/08","05:03:38",1172.000,"cc",28295.074,6.00,6,0.100,985.000,0.200,133.000,0.300,41.000,0.500,11.000,1.000,2.000,5.000,0
"03/08/08","05:03:44",1092.000,"cc",28299.531,6.00,6,0.100,929.000,0.200,125.000,0.300,29.000,0.500,8.000,1.000,1.000,5.000,0
"03/08/08","05:03:50",1148.000,"cc",28315.762,6.00,6,0.100,963.000,0.200,137.000,0.300,34.000,0.500,13.000,1.000,1.000,5.000,0
"03/08/08","05:03:56",1074.000,"cc",28281.102,6.00,6,0.100,901.000,0.200,127.000,0.300,32.000,0.500,13.000,1.000,1.000,5.000,0
"03/08/08","05:04:02",1011.000,"cc",28227.051,6.00,6,0.100,857.000,0.200,121.000,0.300,25.000,0.500,8.000,1.000,0,5.000,0
"03/08/08","05:04:08",1130.000,"cc",28376.891,6.00,6,0.100,968.000,0.200,116.000,0.300,38.000,0.500,8.000,1.000,0,5.000,0
"03/08/08","05:04:14",1097.000,"cc",28331.078,6.00,6,0.100,946.000,0.200,111.000,0.300,25.000,0.500,13.000,1.000,2.000,5.000,0
"03/08/08","05:04:20",1084.000,"cc",28331.541,6.00,6,0.100,944.000,0.200,107.000,0.300,25.000,0.500,8.000,1.000,0,5.000,0
"03/08/08","05:04:26",1068.000,"cc",28347.623,6.00,6,0.100,931.000,0.200,98.000,0.300,27.000,0.500,10.000,1.000,2.000,5.000,0
"03/08/08","05:04:32",1125.000,"cc",28276.045,6.00,6,0.100,936.000,0.200,148.000,0.300,33.000,0.500,8.000,1.000,0,5.000,0
"03/08/08","05:04:38",1059.000,"cc",28300.467,6.00,6,0.100,903.000,0.200,111.000,0.300,30.000,0.500,15.000,1.000,0,5.000,0
"03/08/08","05:04:44",1112.000,"cc",28319.918,6.00,6,0.100,933.000,0.200,126.000,0.300,40.000,0.500,13.000,1.000,0,5.000,0
"03/08/08","05:04:50",1214.000,"cc",28288.787,6.00,6,0.100,1026.000,0.200,136.000,0.300,40.000,0.500,11.000,1.000,1.000,5.000,0
"03/08/08","05:04:56",1146.000,"cc",28315.904,6.00,6,0.100,970.000,0.200,124.000,0.300,38.000,0.500,13.000,1.000,1.000,5.000,0
"03/08/08","05:05:02",1253.000,"cc",28334.354,6.00,6,0.100,1032.000,0.200,155.000,0.300,52.000,0.500,14.000,1.000,0,5.000,0
"03/08/08","05:05:08",1193.000,"cc",28288.051,6.00,6,0.100,1011.000,0.200,136.000,0.300,34.000,0.500,11.000,1.000,1.000,5.000,0
"03/08/08","05:05:14",1082.000,"cc",28273.600,6.00,6,0.100,928.000,0.200,117.000,0.300,26.000,0.500,10.000,1.000,1.000,5.000,0
"03/08/08","05:05:20",1107.000,"cc",28330.055,6.00,6,0.100,950.000,0.200,115.000,0.300,29.000,0.500,13.000,1.000,0,5.000,0
"03/08/08","05:05:26",1001.000,"cc",28319.594,6.00,6,0.100,864.000,0.200,110.000,0.300,18.000,0.500,8.000,1.000,1.000,5.000,0
"03/08/08","05:05:32",1032.000,"cc",28307.322,6.00,6,0.100,908.000,0.200,92.000,0.300,28.000,0.500,4.000,1.000,0,5.000,0
"03/08/08","05:05:38",1116.000,"cc",28346.162,6.00,6,0.100,930.000,0.200,147.000,0.300,26.000,0.500,13.000,1.000,0,5.000,0
"03/08/08","05:05:44",1102.000,"cc",28305.680,6.00,6,0.100,930.000,0.200,133.000,0.300,31.000,0.500,8.000,1.000,0,5.000,0
"03/08/08","05:05:50",1175.000,"cc",28350.791,6.00,6,0.100,1030.000,0.200,108.000,0.300,26.000,0.500,10.000,1.000,1.000,5.000,0
"03/08/08","05:05:56",1182.000,"cc",28286.801,6.00,6,0.100,1000.000,0.200,133.000,0.300,40.000,0.500,8.000,1.000,1.000,5.000,0
"03/08/08","05:06:02",1207.000,"cc",28331.459,6.00,6,0.100,1044.000,0.200,124.000,0.300,24.000,0.500,15.000,1.000,0,5.000,0
"03/08/08","05:06:08",1118.000,"cc",28272.928,6.00,6,0.100,970.000,0.200,108.000,0.300,28.000,0.500,11.000,1.000,1.000,5.000,0
"03/08/08","05:06:14",840.000,"cc",28288.092,6.00,6,0.100,711.000,0.200,97.000,0.300,22.000,0.500,10.000,1.000,0,5.000,0
"03/08/08","05:06:20",866.000,"cc",28313.356,6.00,6,0.100,749.000,0.200,98.000,0.300,13.000,0.500,6.000,1.000,0,5.000,0
"03/08/08","05:06:26",1026.000,"cc",28333.994,6.00,6,0.100,881.000,0.200,100.000,0.300,35.000,0.500,10.000,1.000,0,5.000,0
"03/08/08","05:06:32",911.000,"cc",28342.250,6.00,6,0.100,784.000,0.200,104.000,0.300,17.000,0.500,6.000,1.000,0,5.000,0
"03/08/08","05:06:38",941.000,"cc",28325.859,6.00,6,0.100,814.000,0.200,97.000,0.300,22.000,0.500,8.000,1.000,0,5.000,0
"03/08/08","05:06:44",785.000,"cc",28284.000,6.00,6,0.100,665.000,0.200,95.000,0.300,22.000,0.500,3.000,1.000,0,5.000,0
"03/08/08","05:06:50",779.000,"cc",28267.125,6.00,6,0.100,677.000,0.200,76.000,0.300,22.000,0.500,4.000,1.000,0,5.000,0
"03/08/08","05:06:56",830.000,"cc",28332.576,6.00,6,0.100,720.000,0.200,84.000,0.300,20.000,0.500,6.000,1.000,0,5.000,0
"03/08/08","05:07:02",826.000,"cc",28306.639,6.00,6,0.100,728.000,0.200,77.000,0.300,17.000,0.500,4.000,1.000,0,5.000,0
"03/08/08","05:07:08",836.000,"cc",28341.287,6.00,6,0.100,738.000,0.200,77.000,0.300,18.000,0.500,2.000,1.000,1.000,5.000,0
"03/08/08","05:07:14",709.000,"cc",28385.955,6.00,6,0.100,622.000,0.200,72.000,0.300,11.000,0.500,3.000,1.000,1.000,5.000,0
"03/08/08","05:07:20",782.000,"cc",28300.137,6.00,6,0.100,677.000,0.200,92.000,0.300,13.000,0.500,0,1.000,0,5.000,0
"03/08/08","05:07:26",760.000,"cc",28290.486,6.00,6,0.100,689.000,0.200,58.000,0.300,10.000,0.500,2.000,1.000,1.000,5.000,0
"03/08/08","05:07:32",821.000,"cc",28332.744,6.00,6,0.100,726.000,0.200,82.000,0.300,11.000,0.500,2.000,1.000,0,5.000,0
"03/08/08","05:07:38",861.000,"cc",28303.203,6.00,6,0.100,747.000,0.200,87.000,0.300,21.000,0.500,5.000,1.000,1.000,5.000,0
"03/08/08","05:07:44",800.000,"cc",28305.545,6.00,6,0.100,692.000,0.200,95.000,0.300,12.000,0.500,1.000,1.000,0,5.000,0
"03/08/08","05:07:50",739.000,"cc",28317.100,6.00,6,0.100,643.000,0.200,80.000,0.300,15.000,0.500,1.000,1.000,0,5.000,0
"03/08/08","05:07:56",712.000,"cc",28347.010,6.00,6,0.100,607.000,0.200,84.000,0.300,18.000,0.500,2.000,1.000,1.000,5.000,0
"03/08/08","05:08:02",849.000,"cc",28306.012,6.00,6,0.100,764.000,0.200,70.000,0.300,9.000,0.500,5.000,1.000,1.000,5.000,0
"03/08/08","05:08:08",877.000,"cc",28271.635,6.00,6,0.100,775.000,0.200,85.000,0.300,14.000,0.500,3.000,1.000,0,5.000,0
"03/08/08","05:08:14",830.000,"cc",28288.461,6.00,6,0.100,717.000,0.200,92.000,0.300,17.000,0.500,2.000,1.000,2.000,5.000,0
"03/08/08","05:08:20",935.000,"cc",28343.857,6.00,6,0.100,823.000,0.200,87.000,0.300,20.000,0.500,5.000,1.000,0,5.000,0
"03/08/08","05:08:26",809.000,"cc",28320.084,6.00,6,0.100,707.000,0.200,81.000,0.300,17.000,0.500,3.000,1.000,1.000,5.000,0
"03/08/08","05:08:32",986.000,"cc",28280.777,6.00,6,0.100,859.000,0.200,103.000,0.300,16.000,0.500,8.000,1.000,0,5.000,0
"03/08/08","05:08:38",981.000,"cc",28284.775,6.00,6,0.100,852.000,0.200,101.000,0.300,19.000,0.500,9.000,1.000,0,5.000,0
"03/08/08","05:08:44",865.000,"cc",28369.457,6.00,6,0.100,759.000,0.200,82.000,0.300,19.000,0.500,5.000,1.000,0,5.000,0
"03/08/08","05:08:50",1015.000,"cc",28331.756,6.00,6,0.100,877.000,0.200,114.000,0.300,22.000,0.500,2.000,1.000,0,5.000,0
"03/08/08","05:08:56",875.000,"cc",28310.904,6.00,6,0.100,740.000,0.200,109.000,0.300,21.000,0.500,5.000,1.000,0,5.000,0
"03/08/08","05:09:02",992.000,"cc",28263.289,6.00,6,0.100,860.000,0.200,109.000,0.300,16.000,0.500,6.000,1.000,1.000,5.000,0
"03/08/08","05:09:08",1000.000,"cc",28406.123,6.00,6,0.100,883.000,0.200,93.000,0.300,21.000,0.500,3.000,1.000,0,5.000,0
"03/08/08","05:09:14",1160.000,"cc",28353.211,6.00,6,0.100,983.000,0.200,124.000,0.300,34.000,0.500,18.000,1.000,1.000,5.000,0
"03/08/08","05:09:20",1170.000,"cc",28273.688,6.00,6,0.100,996.000,0.200,115.000,0.300,37.000,0.500,21.000,1.000,1.000,5.000,0
"03/08/08","05:09:26",1265.000,"cc",28306.996,6.00,6,0.100,1072.000,0.200,119.000,0.300,43.000,0.500,24.000,1.000,7.000,5.000,0
"03/08/08","05:09:32",1383.000,"cc",28234.791,6.00,6,0.100,1180.000,0.200,139.000,0.300,42.000,0.500,20.000,1.000,2.000,5.000,0
"03/08/08","05:09:38",1305.000,"cc",28325.107,6.00,6,0.100,1117.000,0.200,128.000,0.300,45.000,0.500,15.000,1.000,0,5.000,0
"03/08/08","05:09:44",1220.000,"cc",28285.525,6.00,6,0.100,1015.000,0.200,135.000,0.300,46.000,0.500,24.000,1.000,0,5.000,0
"03/08/08","05:09:50",1404.000,"cc",28375.131,6.00,6,0.100,1140.000,0.200,152.000,0.300,70.000,0.500,40.000,1.000,2.000,5.000,0
"03/08/08","05:09:56",1315.000,"cc",28283.893,6.00,6,0.100,1085.000,0.200,157.000,0.300,49.000,0.500,24.000,1.000,0,5.000,0
"03/08/08","05:10:02",1346.000,"cc",28290.322,6.00,6,0.100,1112.000,0.200,152.000,0.300,50.000,0.500,28.000,1.000,4.000,5.000,0
"03/08/08","05:10:08",1379.000,"cc",28302.676,6.00,6,0.100,1125.000,0.200,159.000,0.300,55.000,0.500,35.000,1.000,5.000,5.000,0
"03/08/08","05:10:14",1471.000,"cc",28305.924,6.00,6,0.100,1203.000,0.200,150.000,0.300,70.000,0.500,42.000,1.000,6.000,5.000,0
"03/08/08","05:10:20",1372.000,"cc",28362.344,6.00,6,0.100,1111.000,0.200,153.000,0.300,64.000,0.500,37.000,1.000,7.000,5.000,0
"03/08/08","05:10:26",1348.000,"cc",28327.945,6.00,6,0.100,1109.000,0.200,146.000,0.300,52.000,0.500,38.000,1.000,3.000,5.000,0
"03/08/08","05:10:32",1393.000,"cc",28305.879,6.00,6,0.100,1139.000,0.200,146.000,0.300,64.000,0.500,36.000,1.000,8.000,5.000,0
"03/08/08","05:10:38",1544.000,"cc",28319.588,6.00,6,0.100,1228.000,0.200,173.000,0.300,89.000,0.500,44.000,1.000,10.000,5.000,0
"03/08/08","05:10:44",1659.000,"cc",28258.902,6.00,6,0.100,1272.000,0.200,225.000,0.300,94.000,0.500,60.000,1.000,8.000,5.000,0
"03/08/08","05:10:50",1670.000,"cc",28341.863,6.00,6,0.100,1298.000,0.200,228.000,0.300,88.000,0.500,47.000,1.000,9.000,5.000,0
"03/08/08","05:10:56",1646.000,"cc",28344.336,6.00,6,0.100,1283.000,0.200,199.000,0.300,83.000,0.500,74.000,1.000,7.000,5.000,0
"03/08/08","05:11:02",1701.000,"cc",28398.572,6.00,6,0.100,1347.000,0.200,189.000,0.300,95.000,0.500,59.000,1.000,11.000,5.000,0
"03/08/08","05:11:08",1584.000,"cc",28253.164,6.00,6,0.100,1283.000,0.200,162.000,0.300,91.000,0.500,45.000,1.000,3.000,5.000,0
"03/08/08","05:11:14",1751.000,"cc",28300.301,6.00,6,0.100,1361.000,0.200,209.000,0.300,90.000,0.500,78.000,1.000,13.000,5.000,0
"03/08/08","05:11:20",1635.000,"cc",28323.988,6.00,6,0.100,1263.000,0.200,199.000,0.300,105.000,0.500,55.000,1.000,13.000,5.000,0
"03/08/08","05:11:26",1798.000,"cc",28346.850,6.00,6,0.100,1385.000,0.200,223.000,0.300,97.000,0.500,80.000,1.000,13.000,5.000,0
"03/08/08","05:11:32",1957.000,"cc",28396.531,6.00,6,0.100,1455.000,0.200,258.000,0.300,137.000,0.500,95.000,1.000,12.000,5.000,0
"03/08/08","05:11:38",5090.000,"cc",28282.799,6.00,6,0.100,4378.000,0.200,490.000,0.300,139.000,0.500,71.000,1.000,12.000,5.000,0
"03/08/08","05:11:44",90359.000,"cc",28345.381,6.00,6,0.100,81551.000,0.200,8316.000,0.300,359.000,0.500,119.000,1.000,14.000,5.000,0
"03/08/08","05:11:50",45732.000,"cc",28307.035,6.00,6,0.100,41177.000,0.200,4135.000,0.300,273.000,0.500,125.000,1.000,22.000,5.000,0
"03/08/08","05:11:56",25016.000,"cc",28262.592,6.00,6,0.100,22329.000,0.200,2321.000,0.300,230.000,0.500,111.000,1.000,25.000,5.000,0
"03/08/08","05:12:02",29015.000,"cc",28349.527,6.00,6,0.100,25974.000,0.200,2600.000,0.300,275.000,0.500,149.000,1.000,17.000,5.000,0
"03/08/08","05:12:08",41710.000,"cc",28335.076,6.00,6,0.100,37678.000,0.200,3676.000,0.300,242.000,0.500,97.000,1.000,17.000,5.000,0
"03/08/08","05:12:14",19693.000,"cc",28300.459,6.00,6,0.100,17727.000,0.200,1718.000,0.300,158.000,0.500,83.000,1.000,7.000,5.000,0
"03/08/08","05:12:20",15071.000,"cc",28344.568,6.00,6,0.100,13499.000,0.200,1304.000,0.300,168.000,0.500,84.000,1.000,16.000,5.000,0
"03/08/08","05:12:26",15384.000,"cc",28317.725,6.00,6,0.100,13780.000,0.200,1389.000,0.300,141.000,0.500,60.000,1.000,14.000,5.000,0
"03/08/08","05:12:32",32099.000,"cc",28278.549,6.00,6,0.100,28704.000,0.200,3045.000,0.300,241.000,0.500,91.000,1.000,18.000,5.000,0
"03/08/08","05:12:38",46553.000,"cc",28344.736,6.00,6,0.100,41918.000,0.200,4192.000,0.300,289.000,0.500,124.000,1.000,30.000,5.000,0
"03/08/08","05:12:44",24181.000,"cc",28398.328,6.00,6,0.100,21795.000,0.200,2170.000,0.300,150.000,0.500,57.000,1.000,9.000,5.000,0
"03/08/08","05:12:50",6161.000,"cc",28206.803,6.00,6,0.100,5520.000,0.200,545.000,0.300,66.000,0.500,28.000,1.000,2.000,5.000,0
"03/08/08","05:12:56",22812.000,"cc",28330.244,6.00,6,0.100,20541.000,0.200,2029.000,0.300,167.000,0.500,59.000,1.000,16.000,5.000,0
"03/08/08","05:13:02",14472.000,"cc",28386.188,6.00,6,0.100,12720.000,0.200,1441.000,0.300,190.000,0.500,110.000,1.000,11.000,5.000,0
"03/08/08","05:13:08",22561.000,"cc",28276.484,6.00,6,0.100,19879.000,0.200,2187.000,0.300,319.000,0.500,145.000,1.000,31.000,5.000,0
"03/08/08","05:13:14",21269.000,"cc",28281.332,6.00,6,0.100,19046.000,0.200,1990.000,0.300,161.000,0.500,59.000,1.000,13.000,5.000,0
"03/08/08","05:13:20",11488.000,"cc",28347.875,6.00,6,0.100,10159.000,0.200,1095.000,0.300,151.000,0.500,76.000,1.000,7.000,5.000,0
"03/08/08","05:13:26",12749.000,"cc",28355.082,6.00,6,0.100,11272.000,0.200,1240.000,0.300,149.000,0.500,80.000,1.000,8.000,5.000,0
"03/08/08","05:13:32",8076.000,"cc",28271.719,6.00,6,0.100,7271.000,0.200,659.000,0.300,94.000,0.500,49.000,1.000,3.000,5.000,0
"03/08/08","05:13:38",9197.000,"cc",28286.299,6.00,6,0.100,8168.000,0.200,862.000,0.300,105.000,0.500,52.000,1.000,10.000,5.000,0
"03/08/08","05:13:44",11080.000,"cc",28303.023,6.00,6,0.100,9873.000,0.200,1035.000,0.300,112.000,0.500,52.000,1.000,8.000,5.000,0
"03/08/08","05:13:50",8925.000,"cc",28359.365,6.00,6,0.100,7643.000,0.200,985.000,0.300,187.000,0.500,100.000,1.000,10.000,5.000,0
"03/08/08","05:13:56",4479.000,"cc",28285.668,6.00,6,0.100,3942.000,0.200,417.000,0.300,73.000,0.500,36.000,1.000,11.000,5.000,0
"03/08/08","05:14:02",2909.000,"cc",28271.580,6.00,6,0.100,2448.000,0.200,341.000,0.300,68.000,0.500,43.000,1.000,9.000,5.000,0
"03/08/08","05:14:08",3575.000,"cc",28285.986,6.00,6,0.100,3111.000,0.200,358.000,0.300,73.000,0.500,22.000,1.000,11.000,5.000,0
"03/08/08","05:14:14",1987.000,"cc",28379.373,6.00,6,0.100,1718.000,0.200,209.000,0.300,40.000,0.500,15.000,1.000,5.000,5.000,0
"03/08/08","05:14:20",2280.000,"cc",28335.691,6.00,6,0.100,1858.000,0.200,294.000,0.300,73.000,0.500,47.000,1.000,8.000,5.000,0
"03/08/08","05:14:26",2121.000,"cc",28323.504,6.00,6,0.100,1776.000,0.200,229.000,0.300,62.000,0.500,47.000,1.000,7.000,5.000,0
"03/08/08","05:14:32",2101.000,"cc",28264.508,6.00,6,0.100,1747.000,0.200,234.000,0.300,74.000,0.500,40.000,1.000,6.000,5.000,0
"03/08/08","05:14:38",3122.000,"cc",28300.938,6.00,6,0.100,2709.000,0.200,324.000,0.300,58.000,0.500,29.000,1.000,2.000,5.000,0
"03/08/08","05:14:44",2542.000,"cc",28375.967,6.00,6,0.100,2149.000,0.200,294.000,0.300,69.000,0.500,23.000,1.000,7.000,5.000,0
"03/08/08","05:14:50",1571.000,"cc",28297.652,6.00,6,0.100,1320.000,0.200,172.000,0.300,44.000,0.500,33.000,1.000,2.000,5.000,0
"03/08/08","05:14:56",1528.000,"cc",28302.273,6.00,6,0.100,1285.000,0.200,172.000,0.300,48.000,0.500,22.000,1.000,1.000,5.000,0
"03/08/08","05:15:02",1743.000,"cc",28262.350,6.00,6,0.100,1460.000,0.200,206.000,0.300,51.000,0.500,25.000,1.000,1.000,5.000,0
"03/08/08","05:15:08",2309.000,"cc",28345.785,6.00,6,0.100,2025.000,0.200,229.000,0.300,36.000,0.500,17.000,1.000,2.000,5.000,0
"03/08/08","05:15:14",3123.000,"cc",28353.451,6.00,6,0.100,2583.000,0.200,404.000,0.300,92.000,0.500,37.000,1.000,7.000,5.000,0
"03/08/08","05:15:20",3937.000,"cc",28374.223,6.00,6,0.100,3010.000,0.200,630.000,0.300,204.000,0.500,81.000,1.000,12.000,5.000,0
"03/08/08","05:15:26",3843.000,"cc",28287.205,6.00,6,0.100,3123.000,0.200,451.000,0.300,174.000,0.500,77.000,1.000,18.000,5.000,0
"03/08/08","05:15:32",1544.000,"cc",28292.158,6.00,6,0.100,1256.000,0.200,196.000,0.300,66.000,0.500,25.000,1.000,1.000,5.000,0
"03/08/08","05:15:38",5723.000,"cc",28386.397,6.00,6,0.100,4969.000,0.200,589.000,0.300,107.000,0.500,49.000,1.000,9.000,5.000,0
"03/08/08","05:15:44",11415.000,"cc",28280.018,6.00,6,0.100,10305.000,0.200,987.000,0.300,94.000,0.500,26.000,1.000,3.000,5.000,0
"03/08/08","05:15:50",14118.000,"cc",28249.588,6.00,6,0.100,12399.000,0.200,1381.000,0.300,229.000,0.500,94.000,1.000,15.000,5.000,0
"03/08/08","05:15:56",4697.000,"cc",28340.277,6.00,6,0.100,4154.000,0.200,449.000,0.300,65.000,0.500,23.000,1.000,6.000,5.000,0
"03/08/08","05:16:02",5032.000,"cc",28323.258,6.00,6,0.100,4425.000,0.200,484.000,0.300,81.000,0.500,33.000,1.000,9.000,5.000,0
"03/08/08","05:16:08",3163.000,"cc",28281.020,6.00,6,0.100,2767.000,0.200,311.000,0.300,66.000,0.500,17.000,1.000,2.000,5.000,0
"03/08/08","05:16:14",8909.000,"cc",28349.291,6.00,6,0.100,7979.000,0.200,822.000,0.300,80.000,0.500,26.000,1.000,2.000,5.000,0
"03/08/08","05:16:20",9305.000,"cc",28376.840,6.00,6,0.100,8353.000,0.200,808.000,0.300,91.000,0.500,42.000,1.000,11.000,5.000,0
"03/08/08","05:16:26",4619.000,"cc",28262.801,6.00,6,0.100,4093.000,0.200,446.000,0.300,59.000,0.500,18.000,1.000,3.000,5.000,0
"03/08/08","05:16:32",5945.000,"cc",28263.662,6.00,6,0.100,5373.000,0.200,506.000,0.300,46.000,0.500,17.000,1.000,3.000,5.000,0
"03/08/08","05:16:38",3149.000,"cc",28320.648,6.00,6,0.100,2777.000,0.200,309.000,0.300,52.000,0.500,11.000,1.000,0,5.000,0
"03/08/08","05:16:44",10285.000,"cc",28301.197,6.00,6,0.100,9112.000,0.200,964.000,0.300,148.000,0.500,52.000,1.000,9.000,5.000,0
"03/08/08","05:16:50",1970.000,"cc",28305.254,6.00,6,0.100,1702.000,0.200,208.000,0.300,42.000,0.500,16.000,1.000,2.000,5.000,0
"03/08/08","05:16:56",1278.000,"cc",28312.998,6.00,6,0.100,1094.000,0.200,132.000,0.300,36.000,0.500,12.000,1.000,4.000,5.000,0
"03/08/08","05:17:02",1538.000,"cc",28271.953,6.00,6,0.100,1296.000,0.200,174.000,0.300,47.000,0.500,17.000,1.000,4.000,5.000,0
"03/08/08","05:17:08",1176.000,"cc",28337.139,6.00,6,0.100,988.000,0.200,135.000,0.300,39.000,0.500,13.000,1.000,1.000,5.000,0
"03/08/08","05:17:14",1901.000,"cc",28366.951,6.00,6,0.100,1654.000,0.200,190.000,0.300,36.000,0.500,18.000,1.000,3.000,5.000,0
"03/08/08","05:17:20",2118.000,"cc",28280.215,6.00,6,0.100,1796.000,0.200,233.000,0.300,63.000,0.500,22.000,1.000,4.000,5.000,0
"03/08/08","05:17:26",1422.000,"cc",28385.877,6.00,6,0.100,1236.000,0.200,144.000,0.300,25.000,0.500,15.000,1.000,2.000,5.000,0
"03/08/08","05:17:32",2308.000,"cc",28315.426,6.00,6,0.100,2014.000,0.200,228.000,0.300,47.000,0.500,18.000,1.000,1.000,5.000,0
"03/08/08","05:17:38",1580.000,"cc",28316.393,6.00,6,0.100,1318.000,0.200,184.000,0.300,51.000,0.500,19.000,1.000,8.000,5.000,0
"03/08/08","05:17:44",1974.000,"cc",28238.354,6.00,6,0.100,1632.000,0.200,238.000,0.300,68.000,0.500,32.000,1.000,4.000,5.000,0
"03/08/08","05:17:50",2508.000,"cc",28357.500,6.00,6,0.100,1969.000,0.200,326.000,0.300,140.000,0.500,65.000,1.000,8.000,5.000,0